Simultaneous Nadir Overpasses (SNOs) Predictions

Prediction of SNOs between GOES-15 and TERRA Satellite Orbit:

Table of predicted SNOs for the next 14.0 days since TLE Epoch: 8/11/2013
Index Date Time (GOES-15) GOES-15 Lat,Lon TERRA Lat,Lon Distance(km) Time Diff (sec)
1 08/12/2013 19:25:07 0.17,-135.15 -0.04,-134.10 118.81 80
2 08/13/2013 07:49:11 -0.20,-135.12 -1.09,-139.28 473.79 80
3 08/14/2013 19:12:56 0.17,-135.09 -0.66,-131.14 448.25 80
4 08/15/2013 07:37:00 -0.20,-135.06 -0.47,-136.33 144.59 80
5 08/17/2013 07:22:09 -0.19,-134.99 0.16,-133.38 183.84 80
6 08/17/2013 19:46:04 0.22,-134.98 0.97,-138.53 402.74 80
7 08/19/2013 19:33:52 0.22,-134.91 0.39,-135.56 74.81 80
8 08/21/2013 19:19:01 0.21,-134.84 -0.26,-132.61 253.05 80
9 08/22/2013 07:43:05
